| time (UTC) | temp C | wind direction | speed KPH | gust KPH | rain 1hr cm | rain 24hr cm | rain mn cm | humidity % | barometer mb |
| 20260505071515 | 16 | 79 | 0.0 | 12.9 | 0.00 | 0.00 | 0.00 | 52 | 998.3 |
| 20260505070004 | 16 | 60 | 1.6 | 16.1 | 0.00 | 0.00 | 0.00 | 54 | 998.2 |
| 20260505064501 | 17 | 95 | 0.0 | 14.5 | 0.00 | 0.00 | 0.00 | 55 | 998.1 |
| 20260505063100 | 17 | 318 | 1.6 | 16.1 | 0.00 | 0.00 | 0.00 | 55 | 997.9 |
| 20260505061619 | 17 | 39 | 0.0 | 14.5 | 0.00 | 0.00 | 0.00 | 56 | 997.9 |
| 20260505060054 | 18 | 2 | 1.6 | 22.5 | 0.00 | 0.00 | 0.00 | 56 | 997.7 |
| 20260505054603 | 18 | 20 | 0.0 | 20.9 | 0.00 | 0.00 | 0.00 | 61 | 997.5 |
| 20260505053047 | 18 | 13 | 0.0 | 0.0 | 0.00 | 0.00 | 0.00 | 60 | 997.6 |
| 20260505051545 | 18 | 87 | 0.0 | 0.0 | 0.00 | 0.00 | 0.00 | 59 | 997.1 |
| 20260505041539 | 18 | 57 | 0.0 | 1.6 | 0.00 | 0.00 | 0.00 | 56 | 997.0 |
| 20260505040040 | 18 | 270 | 0.0 | 0.0 | 0.00 | 0.00 | 0.00 | 54 | 997.0 |
| 20260505034538 | 19 | 61 | 0.0 | 0.0 | 0.00 | 0.00 | 0.00 | 53 | 997.1 |
| 20260505033047 | 20 | 79 | 0.0 | 3.2 | 0.00 | 0.00 | 0.00 | 52 | 996.9 |
| 20260505031538 | 20 | 115 | 0.0 | 1.6 | 0.00 | 0.00 | 0.00 | 51 | 996.9 |
| 20260505030037 | 20 | 77 | 0.0 | 1.6 | 0.00 | 0.00 | 0.00 | 51 | 996.6 |
| 20260505024601 | 21 | 50 | 0.0 | 1.6 | 0.00 | 0.00 | 0.00 | 47 | 996.4 |
| 20260505023039 | 21 | 51 | 0.0 | 9.7 | 0.00 | 0.00 | 0.00 | 45 | 996.4 |
| 20260505021547 | 22 | 125 | 0.0 | 3.2 | 0.00 | 0.00 | 0.00 | 44 | 996.4 |
| 20260505020041 | 22 | 49 | 0.0 | 8.0 | 0.00 | 0.00 | 0.00 | 41 | 996.4 |
| 20260505014535 | 24 | 84 | 0.0 | 3.2 | 0.00 | 0.00 | 0.00 | 33 | 996.1 |
| 20260505013034 | 24 | 72 | 0.0 | 1.6 | 0.00 | 0.00 | 0.00 | 32 | 995.8 |
| 20260505011547 | 26 | 205 | 0.0 | 9.7 | 0.00 | 0.00 | 0.00 | 33 | 995.9 |
| 20260505010033 | 27 | 94 | 0.0 | 8.0 | 0.00 | 0.00 | 0.00 | 27 | 995.8 |
| 20260505004541 | 28 | 286 | 0.0 | 0.0 | 0.00 | 0.00 | 0.00 | 22 | 995.7 |
| 20260505003030 | 29 | 101 | 0.0 | 0.0 | 0.00 | 0.00 | 0.00 | 18 | 995.9 |
| 20260505001514 | 30 | 184 | 1.6 | 12.9 | 0.00 | 0.00 | 0.00 | 17 | 995.9 |
| 20260505000014 | 30 | 203 | 4.8 | 12.9 | 0.00 | 0.00 | 0.00 | 16 | 995.8 |
| 20260504234517 | 30 | 182 | 0.0 | 9.7 | 0.00 | 0.00 | 0.00 | 15 | 995.9 |
| 20260504233011 | 30 | 235 | 0.0 | 14.5 | 0.00 | 0.00 | 0.00 | 15 | 995.9 |
| 20260504231510 | 30 | 220 | 3.2 | 9.7 | 0.00 | 0.00 | 0.00 | 14 | 996.0 |
| 20260504230010 | 30 | 283 | 4.8 | 17.7 | 0.00 | 0.00 | 0.00 | 14 | 996.2 |
| 20260504224510 | 30 | 218 | 3.2 | 16.1 | 0.00 | 0.00 | 0.00 | 14 | 996.1 |
| 20260504223007 | 31 | 155 | 0.0 | 14.5 | 0.00 | 0.00 | 0.00 | 14 | 996.3 |
| 20260504221504 | 31 | 220 | 6.4 | 17.7 | 0.00 | 0.00 | 0.00 | 14 | 996.5 |
| 20260504220136 | 31 | 187 | 6.4 | 17.7 | 0.00 | 0.00 | 0.00 | 14 | 996.8 |
| 20260504214501 | 31 | 188 | 9.7 | 17.7 | 0.00 | 0.00 | 0.00 | 14 | 996.8 |
| 20260504213126 | 31 | 160 | 0.0 | 12.9 | 0.00 | 0.00 | 0.00 | 15 | 997.1 |
| 20260504211556 | 31 | 256 | 0.0 | 9.7 | 0.00 | 0.00 | 0.00 | 15 | 997.4 |
| 20260504210100 | 31 | 202 | 11.3 | 19.3 | 0.00 | 0.00 | 0.00 | 15 | 997.5 |
| 20260504204603 | 30 | 159 | 1.6 | 22.5 | 0.00 | 0.00 | 0.00 | 15 | 997.6 |
| 20260504203050 | 31 | 117 | 1.6 | 12.9 | 0.00 | 0.00 | 0.00 | 17 | 997.8 |
| 20260504201548 | 30 | 68 | 0.0 | 11.3 | 0.00 | 0.00 | 0.00 | 17 | 998.0 |
| 20260504200047 | 31 | 245 | 0.0 | 16.1 | 0.00 | 0.00 | 0.00 | 16 | 998.4 |
| 20260504194546 | 31 | 243 | 1.6 | 14.5 | 0.00 | 0.00 | 0.00 | 16 | 998.4 |
| 20260504193041 | 31 | 165 | 0.0 | 1.6 | 0.00 | 0.00 | 0.00 | 16 | 998.7 |
| 20260504191541 | 31 | 15 | 0.0 | 1.6 | 0.00 | 0.00 | 0.00 | 16 | 999.0 |
| 20260504190039 | 30 | 352 | 0.0 | 1.6 | 0.00 | 0.00 | 0.00 | 16 | 999.2 |
| 20260504184536 | 30 | 49 | 0.0 | 3.2 | 0.00 | 0.00 | 0.00 | 16 | 999.3 |
| 20260504183033 | 30 | 296 | 0.0 | 0.0 | 0.00 | 0.00 | 0.00 | 17 | 999.7 |
| 20260504181529 | 30 | 57 | 0.0 | 1.6 | 0.00 | 0.00 | 0.00 | 20 | 999.9 |
| 20260504180026 | 30 | 137 | 0.0 | 0.0 | 0.00 | 0.00 | 0.00 | 20 | 1000.0 |
| 20260504174523 | 30 | 113 | 0.0 | 0.0 | 0.00 | 0.00 | 0.00 | 20 | 1000.3 |
| 20260504173019 | 28 | 311 | 0.0 | 0.0 | 0.00 | 0.00 | 0.00 | 21 | 1000.5 |
| 20260504171515 | 28 | 316 | 0.0 | 3.2 | 0.00 | 0.00 | 0.00 | 25 | 1000.7 |
| 20260504160105 | 23 | 237 | 0.0 | 0.0 | 0.00 | 0.00 | 0.00 | 38 | 1001.0 |
| 20260504081555 | 13 | 226 | 1.6 | 8.0 | 0.00 | 0.00 | 0.00 | 52 | 1002.5 |